Cedar Rapids, IA

2:02 AM CST on December 13, 2017 (GMT -0600)
The Eastern Iowa Airport

Weather History for KCID - December, 2013

Change the Weather History Date:

Wednesday, December 18, 2013

  Actual Average Record
Temperature  
Mean Temperature 26 °F 22 °F  
Max Temperature 41 °F 31 °F 57 °F (2002)
Min Temperature 11 °F 14 °F -21 °F (1985)
Degree Days  
Heating Degree Days 39 43  
Month to date heating degree days 846 718  
Since 1 July heating degree days 2289 2164  
Cooling Degree Days 0 0  
Month to date cooling degree days 0 0  
Year to date cooling degree days 884 748  
Moisture  
Dew Point 19 °F    
Average Humidity 69    
Maximum Humidity 85    
Minimum Humidity 53    
Precipitation  
Precipitation 0.00 in 0.04 in 0.48 in (1968)
Month to date precipitation 0.23 0.93  
Year to date precipitation 37.36 34.12  
Sea Level Pressure  
Sea Level Pressure 29.93 in    
Wind  
Wind Speed 8 mph (South)    
Max Wind Speed 21 mph    
Max Gust Speed 29 mph    
Visibility 10 miles    
Events      
T = Trace of Precipitation, MM = Missing Value Source: NWS Daily Summary

Daily Weather History Graph

Daily Weather History Graph

Search for Another Location

Airport or City:

Trip Planner

Search our weather history database for the weather conditions in past years. The results will help you decide how hot, cold, wet, or windy it might be!

Date:

Astronomy

Dec. 18, 2013 Rise Set
Actual Time 7:29 AM CST 4:37 PM CST
Civil Twilight 6:57 AM CST 5:09 PM CST
Nautical Twilight 6:22 AM CST 5:44 PM CST
Astronomical Twilight 5:48 AM CST 6:18 PM CST
Moon 6:11 PM CST (12/18) 8:08 AM CST (12/18)
Length of Visible Light 10h 11m
Length of Day
9h 08m
Full, 98% of the Moon is Illuminated
Dec 18
Full
Dec 25
Last Quarter
Jan 1
New
Jan 7
First Quarter
Jan 15
Full

Hourly Weather History & Observations

Time (CST) Temp. Windchill Dew Point Humidity Pressure Visibility Wind Dir Wind Speed Gust Speed Precip Events Conditions
12:52 AM 12.9 °F 0.7 °F 8.1 °F 81% 30.18 in 10.0 mi West 9.2 mph - N/A   Clear
1:52 AM 16.0 °F - 10.0 °F 77% 30.17 in 10.0 mi Calm Calm - N/A   Clear
2:52 AM 16.0 °F - 10.0 °F 77% 30.17 in 10.0 mi Calm Calm - N/A   Overcast
3:52 AM 12.9 °F 5.2 °F 9.0 °F 84% 30.15 in 10.0 mi South 4.6 mph - N/A   Clear
4:52 AM 12.0 °F 4.1 °F 8.1 °F 84% 30.14 in 10.0 mi SSE 4.6 mph - N/A   Clear
5:52 AM 12.0 °F 2.7 °F 8.1 °F 84% 30.12 in 10.0 mi SSE 5.8 mph - N/A   Clear
6:52 AM 16.0 °F 4.4 °F 10.0 °F 77% 30.07 in 10.0 mi SE 9.2 mph - N/A   Clear
7:52 AM 19.9 °F 9.3 °F 10.9 °F 68% 30.04 in 10.0 mi SSE 9.2 mph - N/A   Clear
8:52 AM 23.0 °F 10.6 °F 12.0 °F 63% 30.01 in 10.0 mi SSE 13.8 mph - N/A   Clear
9:52 AM 28.9 °F 16.9 °F 14.0 °F 54% 29.96 in 10.0 mi SSE 17.3 mph 26.5 mph N/A   Clear
10:52 AM 32.0 °F 21.2 °F 18.0 °F 56% 29.93 in 10.0 mi South 16.1 mph 23.0 mph N/A   Clear
11:52 AM 36.0 °F 27.5 °F 21.0 °F 55% 29.88 in 10.0 mi South 12.7 mph 19.6 mph N/A   Clear
12:52 PM 37.9 °F 28.5 °F 25.0 °F 60% 29.83 in 10.0 mi South 17.3 mph 23.0 mph N/A   Clear
1:52 PM 39.9 °F 32.5 °F 26.1 °F 58% 29.81 in 10.0 mi South 12.7 mph 21.9 mph N/A   Clear
2:52 PM 41.0 °F 33.9 °F 27.0 °F 57% 29.79 in 10.0 mi South 12.7 mph - N/A   Clear
3:52 PM 39.0 °F 31.8 °F 27.0 °F 62% 29.78 in 10.0 mi South 11.5 mph - N/A   Clear
4:52 PM 36.0 °F 30.3 °F 27.0 °F 70% 29.78 in 10.0 mi South 6.9 mph - N/A   Clear
5:52 PM 34.0 °F 28.8 °F 27.0 °F 75% 29.79 in 10.0 mi South 5.8 mph - N/A   Clear
6:52 PM 35.1 °F - 28.0 °F 76% 29.81 in 10.0 mi Calm Calm - N/A   Clear
7:52 PM 30.9 °F 26.2 °F 27.0 °F 85% 29.80 in 10.0 mi South 4.6 mph - N/A   Clear
8:52 PM 30.0 °F 26.5 °F 26.1 °F 85% 29.80 in 10.0 mi South 3.5 mph - N/A   Clear
9:52 PM 30.0 °F 25.2 °F 26.1 °F 85% 29.79 in 10.0 mi South 4.6 mph - N/A   Clear
10:52 PM 30.9 °F 27.5 °F 26.1 °F 82% 29.80 in 10.0 mi South 3.5 mph - N/A   Clear
11:52 PM 28.9 °F 25.2 °F 25.0 °F 85% 29.79 in 10.0 mi South 3.5 mph - N/A   Clear